EGJJ

Jersey Airport

Airport
ICAO code
EGJJ
IATA Code
JER
Summary
ICAO Region
EUR
ICAO Territory
Location

Saint Peter, Jersey

Serving
St Hellier
Elevation
277 ft
Coordinates
49° 12' 26" N , 2° 11' 41" W
KCC
Metar
Observation
EGJJ 281820Z 30013KT 260V340 9999 FEW021 SCT026 13/08 Q1002
Station
Jersey Airport
Date/Time
2022-09-28 18:20:00
Wind direction
300°
Wind speed
13 kts
Lowest cloud amount
few clouds
Temperature
13°C
Dew point
8°C
Humidity
71%
QNH
1002 hPa
Weather condition
n/a

The only airport on the Channel Island of Jersey, a self-governing British Crown Dependency.

Runways

Designator Length Width Surface Rops
08/26 1706 46 ASP Yes/Yes

SKYbrary Partners:

Safety knowledge contributed by: